Rensselaer, IN

7:24 PM CDT on April 25, 2017 (GMT -0500)
Jasper County

Weather History for KRZL - January, 2013

Change the Weather History Date:

Friday, January 4, 2013

  Actual Average (KIKK) Record (KIKK)
Temperature  
Mean Temperature 22 °F -  
Max Temperature 32 °F 33 °F 55 °F (1993)
Min Temperature 12 °F 15 °F -5 °F (1979)
Degree Days  
Heating Degree Days 43    
Moisture  
Dew Point 20 °F    
Average Humidity 84    
Maximum Humidity 100    
Minimum Humidity 74    
Precipitation  
Precipitation 0.00 in - - ()
Sea Level Pressure  
Sea Level Pressure 30.26 in    
Wind  
Wind Speed 12 mph (SW)    
Max Wind Speed 24 mph    
Max Gust Speed 29 mph    
Visibility 10 miles    
Events      
Averages and records for this station are not official NWS values.
T = Trace of Precipitation, MM = Missing Value Source: NWS Daily Summary

Daily Weather History Graph

Daily Weather History Graph

Search for Another Location

Airport or City:

Trip Planner

Search our weather history database for the weather conditions in past years. The results will help you decide how hot, cold, wet, or windy it might be!

Date:

Astronomy

Jan. 04, 2013 Rise Set
Actual Time 7:13 AM CST 4:34 PM CST
Civil Twilight 6:42 AM CST 5:05 PM CST
Nautical Twilight 6:08 AM CST 5:39 PM CST
Astronomical Twilight 5:35 AM CST 6:12 PM CST
Moon No Moon Rise 10:52 AM CST (1/4)
Length of Visible Light 10h 22m
Length of Day
9h 20m
Waning Gibbous, 55% of the Moon is Illuminated
Jan 4
Waning Gibbous
Jan 4
Last Quarter
Jan 11
New
Jan 18
First Quarter
Jan 26
Full

Hourly Weather History & Observations

Time (CST) Temp. Windchill Dew Point Humidity Pressure Visibility Wind Dir Wind Speed Gust Speed Precip Events Conditions
12:15 AM 19.4 °F 8.6 °F 17.6 °F 93% 30.27 in 10.0 mi WSW 9.2 mph - N/A   Mostly Cloudy
12:35 AM 17.6 °F 5.7 °F 15.8 °F 93% 30.27 in 10.0 mi WSW 10.4 mph - N/A   Scattered Clouds
12:55 AM 17.6 °F 7.3 °F 14.0 °F 86% 30.27 in 10.0 mi WSW 8.1 mph - N/A   Clear
1:15 AM 17.6 °F 6.4 °F 14.0 °F 86% 30.27 in 10.0 mi WSW 9.2 mph - N/A   Clear
1:35 AM 17.6 °F 7.3 °F 14.0 °F 86% 30.28 in 10.0 mi WSW 8.1 mph - N/A   Clear
1:55 AM 17.6 °F 6.4 °F 14.0 °F 86% 30.28 in 10.0 mi WSW 9.2 mph - N/A   Clear
2:15 AM 15.8 °F 4.2 °F 14.0 °F 93% 30.28 in 10.0 mi WSW 9.2 mph - N/A   Clear
2:55 AM 15.8 °F 3.4 °F 12.2 °F 86% 30.27 in 10.0 mi WSW 10.4 mph - N/A   Clear
3:15 AM 14.0 °F 0.5 °F 12.2 °F 93% 30.27 in 10.0 mi WSW 11.5 mph - N/A   Clear
5:35 AM 12.2 °F -1.8 °F 10.4 °F 92% 30.27 in 10.0 mi SW 11.5 mph - N/A   Clear
6:15 AM 12.2 °F -0.2 °F 10.4 °F 92% 30.27 in 10.0 mi WSW 9.2 mph - N/A   Clear
6:35 AM 12.2 °F -1.0 °F 10.4 °F 92% 30.28 in 10.0 mi SW 10.4 mph - N/A   Clear
6:55 AM 12.2 °F -1.0 °F 10.4 °F 92% 30.28 in 10.0 mi SW 10.4 mph - N/A   Clear
7:15 AM 12.2 °F -0.2 °F 10.4 °F 92% 30.27 in 10.0 mi SW 9.2 mph - N/A   Clear
7:35 AM 12.2 °F -2.5 °F 10.4 °F 92% 30.27 in 10.0 mi SW 12.7 mph - N/A   Clear
7:55 AM 14.0 °F -0.8 °F 10.4 °F 86% 30.27 in 10.0 mi SW 13.8 mph - N/A   Clear
8:15 AM 14.0 °F -1.4 °F 10.4 °F 86% 30.27 in 10.0 mi SW 15.0 mph - N/A   Clear
8:55 AM 17.6 °F 4.3 °F 12.2 °F 79% 30.28 in 10.0 mi SW 12.7 mph - N/A   Clear
9:15 AM 17.6 °F 2.7 °F 14.0 °F 86% 30.28 in 10.0 mi SW 16.1 mph 21.9 mph N/A   Clear
9:35 AM 19.4 °F 5.5 °F 14.0 °F 80% 30.29 in 10.0 mi SW 15.0 mph 20.7 mph N/A   Clear
9:55 AM 21.2 °F 8.3 °F 17.6 °F 86% 30.29 in 10.0 mi SW 13.8 mph - N/A   Clear
10:15 AM 23.0 °F 9.6 °F 17.6 °F 80% 30.29 in 10.0 mi SW 16.1 mph - N/A   Clear
10:35 AM 23.0 °F 9.2 °F 17.6 °F 80% 30.28 in 10.0 mi SW 17.3 mph - N/A   Clear
10:55 AM 24.8 °F 11.5 °F 19.4 °F 80% 30.27 in 10.0 mi SW 17.3 mph 24.2 mph N/A   Clear
11:15 AM 26.6 °F 13.4 °F 19.4 °F 74% 30.27 in 10.0 mi WSW 18.4 mph 21.9 mph N/A   Clear
11:35 AM 26.6 °F 13.8 °F 21.2 °F 80% 30.26 in 10.0 mi WSW 17.3 mph 24.2 mph N/A   Clear
11:55 AM 26.6 °F 13.8 °F 21.2 °F 80% 30.24 in 10.0 mi SW 17.3 mph 26.5 mph N/A   Clear
12:15 PM 28.4 °F 15.1 °F 21.2 °F 74% 30.24 in 10.0 mi SW 20.7 mph 25.3 mph N/A   Clear
12:35 PM 28.4 °F 15.4 °F 23.0 °F 80% 30.23 in 10.0 mi WSW 19.6 mph 26.5 mph N/A   Clear
12:55 PM 28.4 °F 15.4 °F 23.0 °F 80% 30.23 in 10.0 mi SW 19.6 mph 25.3 mph N/A   Clear
1:15 PM 30.2 °F 18.1 °F 23.0 °F 75% 30.23 in 10.0 mi WSW 18.4 mph 27.6 mph N/A   Clear
1:35 PM 30.2 °F 16.5 °F 23.0 °F 75% 30.22 in 10.0 mi SW 24.2 mph 28.8 mph N/A   Clear
1:55 PM 30.2 °F 17.4 °F 24.8 °F 80% 30.22 in 10.0 mi SW 20.7 mph 27.6 mph N/A   Clear
2:15 PM 30.2 °F 17.4 °F 26.6 °F 86% 30.22 in 10.0 mi SW 20.7 mph 26.5 mph N/A   Clear
2:35 PM 30.2 °F 18.1 °F 26.6 °F 86% 30.22 in 10.0 mi SW 18.4 mph - N/A   Clear
2:55 PM 30.2 °F 17.8 °F 26.6 °F 86% 30.22 in 10.0 mi SW 19.6 mph 26.5 mph N/A   Clear
3:15 PM 32.0 °F 20.8 °F 26.6 °F 80% 30.22 in 10.0 mi SW 17.3 mph 25.3 mph N/A   Clear
3:35 PM 32.0 °F 19.8 °F 26.6 °F 80% 30.22 in 10.0 mi SW 20.7 mph - N/A   Clear
3:55 PM 32.0 °F 20.5 °F 26.6 °F 80% 30.22 in 10.0 mi SW 18.4 mph 24.2 mph N/A   Clear
4:15 PM 30.2 °F 18.5 °F 24.8 °F 80% 30.23 in 10.0 mi SW 17.3 mph 21.9 mph N/A   Clear
4:35 PM 30.2 °F 18.1 °F 24.8 °F 80% 30.22 in 10.0 mi SW 18.4 mph - N/A   Clear
4:55 PM 30.2 °F 18.5 °F 24.8 °F 80% 30.23 in 10.0 mi SW 17.3 mph 23.0 mph N/A   Clear
5:15 PM 30.2 °F 19.3 °F 24.8 °F 80% 30.23 in 10.0 mi SW 15.0 mph - N/A   Clear
5:35 PM 30.2 °F 21.3 °F 24.8 °F 80% 30.24 in 10.0 mi SW 10.4 mph - N/A   Clear
5:55 PM 28.4 °F 17.5 °F 24.8 °F 86% 30.25 in 10.0 mi SW 13.8 mph 18.4 mph N/A   Clear
6:15 PM 28.4 °F 18.0 °F 24.8 °F 86% 30.25 in 10.0 mi SW 12.7 mph - N/A   Clear
6:35 PM 28.4 °F 18.0 °F 23.0 °F 80% 30.25 in 10.0 mi SW 12.7 mph - N/A   Clear
6:55 PM 28.4 °F 17.5 °F 23.0 °F 80% 30.25 in 10.0 mi SW 13.8 mph - N/A   Clear
7:15 PM 28.4 °F 17.0 °F 23.0 °F 80% 30.25 in 10.0 mi SW 15.0 mph - N/A   Clear
7:35 PM 28.4 °F 17.0 °F 23.0 °F 80% 30.25 in 10.0 mi SW 15.0 mph - N/A   Clear
7:55 PM 28.4 °F 18.0 °F 23.0 °F 80% 30.25 in 10.0 mi SW 12.7 mph - N/A   Clear
8:15 PM 28.4 °F 18.5 °F 23.0 °F 80% 30.25 in 10.0 mi SW 11.5 mph - N/A   Clear
8:35 PM 28.4 °F 18.0 °F 23.0 °F 80% 30.26 in 10.0 mi SW 12.7 mph - N/A   Clear
8:55 PM 28.4 °F 19.1 °F 23.0 °F 80% 30.26 in 10.0 mi SW 10.4 mph - N/A   Clear
9:15 PM 26.6 °F 17.5 °F 23.0 °F 86% 30.26 in 10.0 mi SW 9.2 mph - N/A   Clear
9:55 PM 26.6 °F 17.5 °F 23.0 °F 86% 30.27 in 10.0 mi SW 9.2 mph - N/A   Clear
10:15 PM 26.6 °F 21.2 °F 21.2 °F 80% 30.27 in 10.0 mi SSW 4.6 mph - N/A   Clear
10:35 PM 23.0 °F 14.7 °F 21.2 °F 93% 30.27 in 10.0 mi SSW 6.9 mph - N/A   Clear
10:55 PM 23.0 °F 15.8 °F 21.2 °F 93% 30.27 in 10.0 mi SSW 5.8 mph - N/A   Clear
11:15 PM 21.2 °F 12.6 °F 21.2 °F 100% 30.27 in 10.0 mi SSW 6.9 mph - N/A   Clear
11:35 PM 23.0 °F 15.8 °F 21.2 °F 93% 30.27 in 10.0 mi SW 5.8 mph - N/A   Clear
11:55 PM 21.2 °F 14.9 °F 19.4 °F 93% 30.25 in 10.0 mi SSW 4.6 mph - N/A   Clear